Location: Rounton
(54.4000°N, 1.3500°W)
Time: 14:17:30
(UTC+00:00)

Transit 2A - Pass Details

Date: 01 December 2021
Orbit: 591 x 967 km, 66.7° (Epoch: 17 January)

Event Time Altitude Azimuth Distance (km) Brightness Sun altitude
Rises 05:32:01 0° 296° (WNW) 3,551 - -20.8°
Reaches altitude 10° 05:34:56 10° 308° (NW) 2,651 - -20.4°
Exits shadow 05:37:31 21° 329° (NNW) 2,022 7.8 -20.0°
Maximum altitude 05:40:11 27° 5° (N) 1,760 7.8 -19.6°
Drops below altitude 10° 05:45:32 10° 62° (ENE) 2,715 9.5 -18.9°
Sets 05:48:33 0° 74° (ENE) 3,652 10.6 -18.4°
